Boulder City, NV

6:03 PM PST on November 17, 2019 (GMT -0800)
Boulder City

Weather History for KBVU - September, 2019

Change the Weather History Date:

Saturday, September 14, 2019

  Actual Average (KLAS) Record (KLAS)
Temperature  
Mean Temperature 84 °F -  
Max Temperature 100 °F 94 °F 107 °F (1945)
Min Temperature 68 °F 66 °F 50 °F (1941)
Cooling Degree Days 19    
Growing Degree Days 34 (Base 50)    
Moisture  
Dew Point 28 °F    
Average Humidity 15    
Maximum Humidity 35    
Minimum Humidity 6    
Precipitation  
Precipitation 0.00 in - - ()
Sea Level Pressure  
Sea Level Pressure 29.97 in    
Wind  
Wind Speed 2 mph ()    
Max Wind Speed 9 mph    
Max Gust Speed 14 mph    
Visibility 10.0 miles    
Events      
Averages and records for this station are not official NWS values.
T = Trace of Precipitation, MM = Missing Value Source: Averaged Metar Reports

Daily Weather History Graph

Daily Weather History Graph

Search for Another Location

Airport or City:

Astronomy

Sep. 14, 2019 Rise Set
Actual Time 6:21 AM PDT 6:48 PM PDT
Civil Twilight 5:55 AM PDT 7:13 PM PDT
Nautical Twilight 5:25 AM PDT 7:44 PM PDT
Astronomical Twilight 4:54 AM PDT 8:14 PM PDT
Moon 7:31 PM PDT (9/14) 6:39 AM PDT (9/14)
Length of Visible Light 13h 18m
Length of Day
12h 27m
Full, 100% of the Moon is Illuminated
Sep 14
Full
Sep 21
Last Quarter
Sep 28
New
Oct 5
First Quarter
Oct 13
Full

Hourly Weather History & Observations

Time (PDT) Temp. Dew Point Humidity Pressure Visibility Wind Dir Wind Speed Gust Speed Precip Events Conditions
12:15 AM 73.4 °F 35.6 °F 25% 29.99 in 10.0 mi Calm Calm - N/A   Partly Cloudy
12:35 AM 73.4 °F 39.2 °F 29% 30.00 in 10.0 mi Calm Calm - N/A   Partly Cloudy
12:55 AM 71.6 °F 39.2 °F 31% 30.00 in 10.0 mi Calm Calm - N/A   Clear
1:35 AM 69.8 °F 39.2 °F 33% 30.00 in 10.0 mi Calm Calm - N/A   Clear
1:55 AM 69.8 °F 37.4 °F 31% 30.00 in 10.0 mi Calm Calm - N/A   Clear
2:15 AM 69.8 °F 39.2 °F 33% 29.99 in 10.0 mi ENE 3.5 mph - N/A   Clear
2:35 AM 69.8 °F 41.0 °F 35% 29.99 in 10.0 mi Calm Calm - N/A   Partly Cloudy
2:55 AM 73.4 °F 33.8 °F 23% 29.98 in 10.0 mi Calm Calm - N/A   Clear
3:15 AM 73.4 °F 32.0 °F 22% 29.98 in 10.0 mi Calm Calm - N/A   Clear
3:35 AM 69.8 °F 33.8 °F 27% 29.99 in 10.0 mi Calm Calm - N/A   Clear
3:55 AM 69.8 °F 33.8 °F 27% 29.99 in 10.0 mi Calm Calm - N/A   Clear
4:15 AM 68.0 °F 33.8 °F 28% 29.99 in 10.0 mi NNE 3.5 mph - N/A   Clear
4:35 AM 68.0 °F 32.0 °F 26% 29.99 in 10.0 mi Calm Calm - N/A   Scattered Clouds
4:55 AM 69.8 °F 32.0 °F 25% 30.00 in 10.0 mi Calm Calm - N/A   Scattered Clouds
5:15 AM 68.0 °F 32.0 °F 26% 30.00 in 10.0 mi Calm Calm - N/A   Partly Cloudy
5:35 AM 68.0 °F 33.8 °F 28% 30.01 in 10.0 mi Calm Calm - N/A   Clear
5:55 AM 68.0 °F 33.8 °F 28% 30.01 in 10.0 mi Calm Calm - N/A   Clear
6:15 AM 68.0 °F 30.2 °F 24% 30.01 in 10.0 mi Calm Calm - N/A   Clear
6:35 AM 68.0 °F 28.4 °F 23% 30.02 in 10.0 mi Calm Calm - N/A   Clear
6:55 AM 71.6 °F 26.6 °F 19% 30.03 in 10.0 mi Calm Calm - N/A   Clear
7:15 AM 71.6 °F 24.8 °F 17% 30.03 in 10.0 mi Calm Calm - N/A   Clear
7:35 AM 71.6 °F 23.0 °F 16% 30.04 in 10.0 mi Calm Calm - N/A   Clear
7:55 AM 73.4 °F 26.6 °F 18% 30.04 in 10.0 mi Calm Calm - N/A   Clear
8:15 AM 75.2 °F 28.4 °F 18% 30.04 in 10.0 mi Calm Calm - N/A   Clear
8:35 AM 77.0 °F 24.8 °F 14% 30.04 in 10.0 mi Calm Calm - N/A   Clear
8:55 AM 78.8 °F 24.8 °F 14% 30.05 in 10.0 mi Calm Calm - N/A   Clear
9:15 AM 80.6 °F 24.8 °F 13% 30.05 in 10.0 mi Calm Calm - N/A   Clear
9:35 AM 82.4 °F 24.8 °F 12% 30.05 in 10.0 mi Calm Calm - N/A   Clear
9:55 AM 84.2 °F 24.8 °F 11% 30.05 in 10.0 mi Calm Calm - N/A   Clear
10:15 AM 86.0 °F 26.6 °F 12% 30.05 in 10.0 mi Calm Calm - N/A   Clear
10:55 AM 89.6 °F 23.0 °F 9% 30.04 in 10.0 mi ENE 5.8 mph - N/A   Clear
11:15 AM 91.4 °F 23.0 °F 8% 30.03 in 10.0 mi East 5.8 mph - N/A   Clear
11:35 AM 93.2 °F 23.0 °F 8% 30.03 in 10.0 mi East 8.1 mph - N/A   Clear
12:15 PM 95.0 °F 23.0 °F 8% 30.02 in 10.0 mi NE 8.1 mph - N/A   Clear
12:35 PM 95.0 °F 23.0 °F 8% 30.01 in 10.0 mi Variable 3.5 mph - N/A   Clear
12:55 PM 95.0 °F 21.2 °F 7% 30.00 in 10.0 mi Variable 5.8 mph - N/A   Clear
1:15 PM 96.8 °F 21.2 °F 7% 29.99 in 10.0 mi Calm Calm - N/A   Clear
1:35 PM 96.8 °F 21.2 °F 7% 29.98 in 10.0 mi Variable 5.8 mph - N/A   Clear
1:55 PM 96.8 °F 21.2 °F 7% 29.97 in 10.0 mi Calm Calm - N/A   Clear
2:15 PM 96.8 °F 23.0 °F 7% 29.96 in 10.0 mi Calm Calm - N/A   Clear
2:35 PM 98.6 °F 23.0 °F 7% 29.94 in 10.0 mi Calm Calm 11.5 mph N/A   Clear
2:55 PM 98.6 °F 23.0 °F 7% 29.94 in 10.0 mi Calm Calm - N/A   Clear
3:15 PM 98.6 °F 23.0 °F 7% 29.93 in 10.0 mi Calm Calm - N/A   Clear
3:35 PM 98.6 °F 23.0 °F 7% 29.92 in 10.0 mi Calm Calm - N/A   Clear
3:55 PM 100.4 °F 23.0 °F 6% 29.91 in 10.0 mi Variable 6.9 mph - N/A   Clear
4:15 PM 100.4 °F 23.0 °F 6% 29.91 in 10.0 mi Variable 5.8 mph - N/A   Clear
4:35 PM 100.4 °F 23.0 °F 6% 29.90 in 10.0 mi Calm Calm - N/A   Clear
4:55 PM 100.4 °F 23.0 °F 6% 29.90 in 10.0 mi ESE 8.1 mph - N/A   Clear
5:15 PM 98.6 °F 23.0 °F 7% 29.89 in 10.0 mi SE 8.1 mph - N/A   Clear
5:35 PM 98.6 °F 23.0 °F 7% 29.89 in 10.0 mi SE 6.9 mph 13.8 mph N/A   Clear
5:55 PM 98.6 °F 23.0 °F 7% 29.89 in 10.0 mi SSE 6.9 mph - N/A   Clear
6:15 PM 98.6 °F 23.0 °F 7% 29.89 in 10.0 mi SSE 9.2 mph - N/A   Clear
6:35 PM 96.8 °F 23.0 °F 7% 29.89 in 10.0 mi SE 8.1 mph - N/A   Clear
7:15 PM 93.2 °F 23.0 °F 8% 29.90 in 10.0 mi ESE 5.8 mph - N/A   Clear
7:35 PM 89.6 °F 28.4 °F 11% 29.90 in 10.0 mi East 4.6 mph - N/A   Clear
7:55 PM 87.8 °F 32.0 °F 14% 29.91 in 10.0 mi East 4.6 mph - N/A   Clear
8:15 PM 89.6 °F 30.2 °F 12% 29.91 in 10.0 mi Variable 3.5 mph - N/A   Clear
8:35 PM 86.0 °F 26.6 °F 12% 29.92 in 10.0 mi NW 6.9 mph - N/A   Clear
8:55 PM 86.0 °F 30.2 °F 13% 29.92 in 10.0 mi Calm Calm - N/A   Clear
9:15 PM 86.0 °F 30.2 °F 13% 29.93 in 10.0 mi NW 5.8 mph - N/A   Clear
9:35 PM 86.0 °F 23.0 °F 10% 29.93 in 10.0 mi West 4.6 mph - N/A   Clear
9:55 PM 86.0 °F 28.4 °F 12% 29.93 in 10.0 mi Calm Calm - N/A   Clear
10:15 PM 87.8 °F 23.0 °F 9% 29.93 in 10.0 mi SSW 5.8 mph - N/A   Clear
10:35 PM 84.2 °F 23.0 °F 11% 29.94 in 10.0 mi West 8.1 mph - N/A   Clear
10:55 PM 82.4 °F 21.2 °F 10% 29.94 in 10.0 mi NW 9.2 mph - N/A   Clear
11:35 PM 80.6 °F 30.2 °F 16% 29.94 in 10.0 mi Calm Calm - N/A   Partly Cloudy
11:55 PM 75.2 °F 37.4 °F 25% 29.94 in 10.0 mi NNE 5.8 mph - N/A   Clear